When you browse on this site, cookies collect data to enhance your experience and personalize the content and advertising you see.
Visit our Privacy Policy to learn more. By continuing to use the site, you agree to this use of cookies and data.
  • In Deutschland
  • Länderverzeichnis
  • Für 7 Tage
  • Wassertemperatur
  • Satellitenkarten
  • Wetterkarte
  • Widgets
  • user-avatar
    Anmelden

    Stündliche Wetter Soure

    Heute, 18 Januar, Freitag

    Zeit Temperatur Niederschläge Wind Luftdruck Luftfeuchtigkeit
    00:00 +27°C° 0.6 mm 3 m/S 758 mmHg 91%
    01:00 +27°C° 2.3 mm 3 m/S 758 mmHg 91%
    02:00 +27°C° 2.3 mm 3 m/S 757 mmHg 92%
    03:00 +27°C° 0 mm 3 m/S 757 mmHg 93%
    04:00 +26°C° 2.6 mm 3 m/S 757 mmHg 93%
    05:00 +26°C° 2.6 mm 3 m/S 757 mmHg 93%
    06:00 +26°C° 2.6 mm 3 m/S 757 mmHg 92%
    07:00 +27°C° 1.7 mm 3 m/S 758 mmHg 91%
    08:00 +28°C° 1.7 mm 3 m/S 758 mmHg 89%
    09:00 +29°C° 0 mm 4 m/S 758 mmHg 88%
    10:00 +29°C° 0.9 mm 4 m/S 758 mmHg 85%
    11:00 +30°C° 0.9 mm 4 m/S 758 mmHg 83%
    12:00 +32°C° 0.9 mm 4 m/S 758 mmHg 80%
    13:00 +32°C° 0.5 mm 4 m/S 757 mmHg 80%
    14:00 +32°C° 0.5 mm 4 m/S 756 mmHg 79%
    15:00 +32°C° 0.5 mm 4 m/S 756 mmHg 79%
    16:00 +30°C° 0.2 mm 4 m/S 756 mmHg 82%
    17:00 +29°C° 0.2 mm 4 m/S 756 mmHg 84%
    18:00 +29°C° 0.2 mm 4 m/S 756 mmHg 87%
    19:00 +28°C° 0.1 mm 3 m/S 756 mmHg 88%
    20:00 +28°C° 0.1 mm 3 m/S 757 mmHg 89%
    21:00 +27°C° 0.1 mm 3 m/S 757 mmHg 90%
    22:00 +27°C° 0.1 mm 3 m/S 757 mmHg 90%
    23:00 +27°C° 0.1 mm 3 m/S 757 mmHg 90%

    Morgen, 19 Januar, Samstag

    Zeit Temperatur Niederschläge Wind Luftdruck Luftfeuchtigkeit
    00:00 +27°C° 0.1 mm 3 m/S 758 mmHg 91%
    01:00 +27°C° 0.1 mm 3 m/S 757 mmHg 91%
    02:00 +27°C° 0.1 mm 3 m/S 757 mmHg 91%
    03:00 +27°C° 0.1 mm 3 m/S 757 mmHg 91%
    04:00 +27°C° 0.9 mm 3 m/S 757 mmHg 91%
    05:00 +27°C° 0.9 mm 3 m/S 757 mmHg 92%
    06:00 +27°C° 0.9 mm 3 m/S 757 mmHg 92%
    07:00 +27°C° 0.7 mm 3 m/S 757 mmHg 91%
    08:00 +28°C° 0.7 mm 3 m/S 758 mmHg 89%
    09:00 +29°C° 0.7 mm 3 m/S 758 mmHg 87%
    10:00 +29°C° 0.8 mm 3 m/S 758 mmHg 86%
    11:00 +29°C° 0.8 mm 4 m/S 758 mmHg 84%
    12:00 +30°C° 0.8 mm 4 m/S 758 mmHg 83%
    13:00 +30°C° 1 mm 4 m/S 757 mmHg 83%
    14:00 +30°C° 1 mm 4 m/S 757 mmHg 84%
    15:00 +29°C° 1 mm 4 m/S 756 mmHg 84%
    16:00 +29°C° 1 mm 4 m/S 756 mmHg 86%
    17:00 +28°C° 1 mm 4 m/S 756 mmHg 87%
    18:00 +28°C° 1 mm 4 m/S 756 mmHg 89%
    19:00 +28°C° 1 mm 4 m/S 756 mmHg 90%
    20:00 +27°C° 1 mm 3 m/S 757 mmHg 91%
    21:00 +27°C° 1 mm 3 m/S 757 mmHg 92%
    22:00 +27°C° 0.6 mm 3 m/S 758 mmHg 92%
    23:00 +27°C° 0.6 mm 3 m/S 758 mmHg 93%

    übermorgen, 20 Januar, Sonntag

    Zeit Temperatur Niederschläge Wind Luftdruck Luftfeuchtigkeit
    00:00 +27°C° 0.6 mm 3 m/S 758 mmHg 93%
    01:00 +27°C° 1.4 mm 3 m/S 757 mmHg 93%
    02:00 +27°C° 1.4 mm 3 m/S 757 mmHg 93%
    03:00 +27°C° 1.4 mm 2 m/S 756 mmHg 94%
    04:00 +27°C° 1.8 mm 2 m/S 756 mmHg 94%
    05:00 +27°C° 1.8 mm 2 m/S 757 mmHg 93%
    06:00 +27°C° 1.8 mm 2 m/S 757 mmHg 93%
    07:00 +27°C° 0.4 mm 2 m/S 757 mmHg 93%
    08:00 +27°C° 0.4 mm 2 m/S 758 mmHg 92%
    09:00 +28°C° 0.4 mm 2 m/S 758 mmHg 91%
    10:00 +29°C° 0.4 mm 2 m/S 758 mmHg 88%
    11:00 +29°C° 0.4 mm 3 m/S 758 mmHg 86%
    12:00 +30°C° 0.4 mm 3 m/S 758 mmHg 83%
    13:00 +30°C° 0.8 mm 3 m/S 757 mmHg 82%
    14:00 +30°C° 0.8 mm 4 m/S 757 mmHg 81%
    15:00 +30°C° 0.8 mm 4 m/S 756 mmHg 80%
    16:00 +30°C° 0.1 mm 4 m/S 756 mmHg 82%
    17:00 +29°C° 0.1 mm 4 m/S 756 mmHg 83%
    18:00 +29°C° 0.1 mm 4 m/S 756 mmHg 85%
    19:00 +28°C° 0.6 mm 4 m/S 757 mmHg 87%
    20:00 +28°C° 0.6 mm 4 m/S 757 mmHg 89%
    21:00 +27°C° 0.6 mm 3 m/S 758 mmHg 91%
    22:00 +27°C° 1.7 mm 3 m/S 758 mmHg 91%
    23:00 +27°C° 1.7 mm 3 m/S 758 mmHg 92%

    21 Januar, Montag

    Zeit Temperatur Niederschläge Wind Luftdruck Luftfeuchtigkeit
    00:00 +27°C° 1.7 mm 3 m/S 758 mmHg 92%
    01:00 +27°C° 2.1 mm 3 m/S 757 mmHg 92%
    02:00 +27°C° 2.1 mm 3 m/S 757 mmHg 92%
    03:00 +27°C° 2.1 mm 3 m/S 756 mmHg 93%
    04:00 +27°C° 2.4 mm 3 m/S 757 mmHg 93%
    05:00 +27°C° 2.4 mm 3 m/S 757 mmHg 92%
    06:00 +27°C° 2.4 mm 3 m/S 757 mmHg 92%
    07:00 +27°C° 2.1 mm 3 m/S 758 mmHg 91%
    08:00 +28°C° 2.1 mm 3 m/S 758 mmHg 90%
    09:00 +28°C° 2.1 mm 3 m/S 759 mmHg 89%
    10:00 +29°C° 1.8 mm 3 m/S 759 mmHg 87%
    11:00 +29°C° 1.8 mm 3 m/S 759 mmHg 85%
    12:00 +30°C° 1.8 mm 3 m/S 758 mmHg 83%
    13:00 +30°C° 1.4 mm 4 m/S 758 mmHg 82%
    14:00 +30°C° 1.4 mm 4 m/S 757 mmHg 82%
    15:00 +30°C° 1.4 mm 4 m/S 756 mmHg 81%
    16:00 +29°C° 0.6 mm 4 m/S 756 mmHg 82%
    17:00 +29°C° 0.6 mm 4 m/S 756 mmHg 84%
    18:00 +28°C° 0.6 mm 4 m/S 756 mmHg 85%
    19:00 +28°C° 0 mm 4 m/S 757 mmHg 86%
    20:00 +28°C° 0 mm 4 m/S 758 mmHg 86%
    21:00 +28°C° 0 mm 4 m/S 758 mmHg 86%
    22:00 +28°C° 0 mm 4 m/S 758 mmHg 87%
    23:00 +28°C° 0 mm 3 m/S 758 mmHg 87%

    22 Januar, Dienstag

    Zeit Temperatur Niederschläge Wind Luftdruck Luftfeuchtigkeit
    00:00 +28°C° 0 mm 3 m/S 758 mmHg 87%
    01:00 +27°C° 1.4 mm 3 m/S 758 mmHg 89%
    02:00 +27°C° 1.4 mm 3 m/S 757 mmHg 91%
    03:00 +27°C° 1.4 mm 3 m/S 757 mmHg 93%
    04:00 +27°C° 2.8 mm 3 m/S 757 mmHg 92%
    05:00 +27°C° 2.8 mm 3 m/S 757 mmHg 92%
    06:00 +27°C° 2.8 mm 4 m/S 757 mmHg 91%
    07:00 +27°C° 2.2 mm 3 m/S 758 mmHg 90%
    08:00 +28°C° 2.2 mm 3 m/S 758 mmHg 90%
    09:00 +28°C° 2.2 mm 3 m/S 759 mmHg 89%
    10:00 +29°C° 1.8 mm 3 m/S 758 mmHg 88%
    11:00 +29°C° 1.8 mm 4 m/S 758 mmHg 86%
    12:00 +30°C° 1.8 mm 4 m/S 758 mmHg 85%
    13:00 +30°C° 1.3 mm 4 m/S 757 mmHg 84%
    14:00 +30°C° 1.3 mm 4 m/S 757 mmHg 82%
    15:00 +30°C° 1.3 mm 4 m/S 756 mmHg 81%
    16:00 +29°C° 0.9 mm 4 m/S 756 mmHg 84%
    17:00 +29°C° 0.9 mm 4 m/S 756 mmHg 87%
    18:00 +28°C° 0.9 mm 4 m/S 756 mmHg 90%
    19:00 +28°C° 3.1 mm 4 m/S 757 mmHg 91%
    20:00 +27°C° 3.1 mm 4 m/S 757 mmHg 92%
    21:00 +27°C° 3.1 mm 4 m/S 758 mmHg 93%
    22:00 +27°C° 3.9 mm 4 m/S 758 mmHg 93%
    23:00 +27°C° 3.9 mm 3 m/S 758 mmHg 93%

    23 Januar, Mittwoch

    Zeit Temperatur Niederschläge Wind Luftdruck Luftfeuchtigkeit
    00:00 +27°C° 3.9 mm 3 m/S 758 mmHg 93%
    01:00 +27°C° 3.4 mm 3 m/S 758 mmHg 93%
    02:00 +27°C° 3.4 mm 3 m/S 757 mmHg 94%
    03:00 +27°C° 3.4 mm 2 m/S 757 mmHg 94%
    04:00 +26°C° 2.4 mm 2 m/S 757 mmHg 93%
    05:00 +26°C° 2.4 mm 2 m/S 757 mmHg 93%
    06:00 +26°C° 2.4 mm 2 m/S 757 mmHg 93%
    07:00 +27°C° 2.6 mm 2 m/S 758 mmHg 92%
    08:00 +27°C° 2.6 mm 2 m/S 758 mmHg 92%
    09:00 +28°C° 2.6 mm 3 m/S 759 mmHg 91%
    10:00 +27°C° 2.5 mm 2 m/S 759 mmHg 91%
    11:00 +27°C° 2.5 mm 2 m/S 759 mmHg 92%
    12:00 +27°C° 2.5 mm 2 m/S 758 mmHg 92%
    13:00 +27°C° 2.3 mm 3 m/S 758 mmHg 92%
    14:00 +27°C° 2.3 mm 3 m/S 757 mmHg 92%
    15:00 +27°C° 2.3 mm 3 m/S 756 mmHg 92%
    16:00 +27°C° 0.6 mm 3 m/S 756 mmHg 92%
    17:00 +27°C° 0.6 mm 3 m/S 756 mmHg 92%
    18:00 +27°C° 0.6 mm 3 m/S 756 mmHg 92%
    19:00 +27°C° 0 mm 3 m/S 757 mmHg 92%
    20:00 +27°C° 0 mm 3 m/S 757 mmHg 92%
    21:00 +27°C° 0 mm 3 m/S 758 mmHg 92%
    22:00 +27°C° 0 mm 3 m/S 758 mmHg 92%
    23:00 +27°C° 0 mm 3 m/S 758 mmHg 91%
    Mehr zeigen